This is the latest recevied weather packets stored in our database for station/object N2OCK. If no packets are shown the sender has not sent any weather packets the latest 10 day(s).
| Time | Temp. | Humidity | Pressure | Rain* | Wind** | Luminosity | Snow |
|---|---|---|---|---|---|---|---|
| 1777640811 | 11.67° C | 58% | 1013.1 hPa | 0 mm | - | 415 W/m² | - |
| 1777640509 | 11.67° C | 55% | 1013.2 hPa | 0 mm | - | 402 W/m² | - |
| 1777640206 | 11.11° C | 57% | 1013.2 hPa | 0 mm | - | 386 W/m² | - |
| 1777639902 | 10.56° C | 58% | 1013 hPa | 0 mm | - | 373 W/m² | - |
| 1777639599 | 11.11° C | 60% | 1013.1 hPa | 0 mm | - | 358 W/m² | - |
| 1777639296 | 10.56° C | 59% | 1013 hPa | 0 mm | - | 343 W/m² | - |
| 1777638992 | 10.56° C | 60% | 1013.2 hPa | 0 mm | - | 329 W/m² | - |
| 1777638688 | 10.56° C | 61% | 1013 hPa | 0 mm | - | 313 W/m² | - |
| 1777638385 | 10° C | 62% | 1013 hPa | 0 mm | - | 299 W/m² | - |
| 1777638081 | 10.56° C | 63% | 1013.1 hPa | 0 mm | - | 286 W/m² | - |
| 1777637778 | 10° C | 65% | 1013 hPa | 0 mm | - | 269 W/m² | - |
| 1777637474 | 10° C | 65% | 1012.9 hPa | 0 mm | - | 255 W/m² | - |
| 1777637172 | 10° C | 65% | 1013.1 hPa | 0 mm | - | 241 W/m² | - |
| 1777636869 | 9.44° C | 67% | 1012.9 hPa | 0 mm | - | 225 W/m² | - |
| 1777636564 | 9.44° C | 67% | 1013 hPa | 0 mm | - | 211 W/m² | - |
| 1777636260 | 9.44° C | 67% | 1013 hPa | 0 mm | - | 197 W/m² | - |
| 1777635960 | 8.89° C | 69% | 1012.8 hPa | 0 mm | - | 182 W/m² | - |
| 1777635656 | 8.89° C | 69% | 1012.9 hPa | 0 mm | - | 168 W/m² | - |
| 1777635353 | 8.89° C | 69% | 1013 hPa | 0 mm | - | 144 W/m² | - |
| 1777635050 | 8.89° C | 70% | 1013.1 hPa | 0 mm | - | 141 W/m² | - |
| 1777634746 | 8.89° C | 70% | 1012.8 hPa | 0 mm | - | 128 W/m² | - |
| 1777634444 | 8.33° C | 71% | 1012.8 hPa | 0 mm | - | 114 W/m² | - |
| 1777634140 | 8.33° C | 71% | 1012.8 hPa | 0 mm | - | 99 W/m² | - |
| 1777633837 | 7.78° C | 72% | 1012.7 hPa | 0 mm | - | 88 W/m² | - |
| 1777633535 | 7.78° C | 73% | 1012.6 hPa | 0 mm | - | 77 W/m² | - |
* Rain latest hour (hover to see other rain measurements)
** Current wind speed in m/s (hover to see current wind gust speed)